When you browse on this site, cookies collect data to enhance your experience and personalize the content and advertising you see.
Visit our Privacy Policy to learn more. By continuing to use the site, you agree to this use of cookies and data.
  • In Sweden
  • List of Countries
  • For 7 days
  • Water Temperature
  • Weather Map
  • Weather Widgets
  • user-avatar
    Login

    Hourly Weather Salzburg

    Today, 18 September, Wednesday

    Time Temperature Precipitation Wind Pressure Humidity
    00:00 +8°C° 0.2 mm 1 mps 628 mmHg 98%
    01:00 +7°C° 0 mm 2 mps 628 mmHg 99%
    02:00 +7°C° 0 mm 2 mps 628 mmHg 98%
    03:00 +6°C° 0 mm 2 mps 628 mmHg 98%
    04:00 +5°C° 0 mm 2 mps 628 mmHg 98%
    05:00 +6°C° 0 mm 1 mps 628 mmHg 98%
    06:00 +6°C° 0 mm 1 mps 629 mmHg 98%
    07:00 +6°C° 0 mm 1 mps 629 mmHg 97%
    08:00 +6°C° 0 mm 1 mps 629 mmHg 95%
    09:00 +6°C° 0 mm 1 mps 629 mmHg 93%
    10:00 +7°C° 0 mm 1 mps 629 mmHg 91%
    11:00 +7°C° 0 mm 1 mps 629 mmHg 87%
    12:00 +8°C° 0 mm 1 mps 629 mmHg 84%
    13:00 +8°C° 0 mm 1 mps 630 mmHg 80%
    14:00 +9°C° 0 mm 1 mps 629 mmHg 79%
    15:00 +9°C° 0 mm 1 mps 629 mmHg 77%
    16:00 +9°C° 0 mm 1 mps 629 mmHg 75%
    17:00 +8°C° 0 mm 1 mps 629 mmHg 78%
    18:00 +7°C° 0 mm 1 mps 629 mmHg 81%
    19:00 +6°C° 0 mm 1 mps 629 mmHg 85%
    20:00 +5°C° 0 mm 1 mps 629 mmHg 86%
    21:00 +4°C° 0 mm 1 mps 629 mmHg 88%
    22:00 +2°C° 0 mm 0 mps 629 mmHg 90%
    23:00 +2°C° 0 mm 0 mps 629 mmHg 91%

    Tomorrow, 19 September, Thursday

    Time Temperature Precipitation Wind Pressure Humidity
    00:00 +1°C° 0 mm 0 mps 629 mmHg 91%
    01:00 +1°C° 0 mm 0 mps 629 mmHg 92%
    02:00 +1°C° 0 mm 0 mps 628 mmHg 92%
    03:00 0°C° 0 mm 0 mps 628 mmHg 92%
    04:00 0°C° 0 mm 0 mps 628 mmHg 93%
    05:00 +1°C° 0 mm 0 mps 628 mmHg 90%
    06:00 +1°C° 0 mm 0 mps 629 mmHg 87%
    07:00 +2°C° 0 mm 0 mps 629 mmHg 84%
    08:00 +4°C° 0 mm 0 mps 630 mmHg 74%
    09:00 +7°C° 0 mm 1 mps 631 mmHg 63%
    10:00 +9°C° 0 mm 1 mps 632 mmHg 53%
    11:00 +10°C° 0 mm 1 mps 632 mmHg 51%
    12:00 +9°C° 0 mm 2 mps 632 mmHg 49%
    13:00 +10°C° 0 mm 2 mps 632 mmHg 47%
    14:00 +10°C° 0 mm 2 mps 632 mmHg 50%
    15:00 +9°C° 0 mm 2 mps 631 mmHg 54%
    16:00 +8°C° 0 mm 2 mps 631 mmHg 57%
    17:00 +6°C° 0 mm 2 mps 631 mmHg 69%
    18:00 +4°C° 0 mm 1 mps 630 mmHg 81%
    19:00 +1°C° 0 mm 0 mps 629 mmHg 93%
    20:00 +1°C° 0 mm 0 mps 630 mmHg 93%
    21:00 0°C° 0 mm 0 mps 630 mmHg 93%
    22:00 0°C° 0 mm 0 mps 630 mmHg 93%
    23:00 +1°C° 0 mm 1 mps 630 mmHg 93%

    Day after tomorrow, 20 September, Friday

    Time Temperature Precipitation Wind Pressure Humidity
    00:00 0°C° 0 mm 1 mps 630 mmHg 92%
    01:00 0°C° 0 mm 1 mps 630 mmHg 92%
    02:00 0°C° 0 mm 1 mps 630 mmHg 90%
    03:00 0°C° 0 mm 1 mps 629 mmHg 89%
    04:00 -1°C° 0 mm 0 mps 629 mmHg 88%
    05:00 0°C° 0 mm 0 mps 629 mmHg 84%
    06:00 +1°C° 0 mm 1 mps 630 mmHg 80%
    07:00 +2°C° 0 mm 1 mps 630 mmHg 76%
    08:00 +5°C° 0 mm 1 mps 631 mmHg 64%
    09:00 +8°C° 0 mm 1 mps 632 mmHg 53%
    10:00 +11°C° 0 mm 1 mps 633 mmHg 41%
    11:00 +12°C° 0 mm 1 mps 633 mmHg 39%
    12:00 +13°C° 0 mm 1 mps 633 mmHg 38%
    13:00 +14°C° 0 mm 1 mps 633 mmHg 36%
    14:00 +13°C° 0 mm 1 mps 633 mmHg 41%
    15:00 +13°C° 0 mm 1 mps 632 mmHg 45%
    16:00 +12°C° 0 mm 1 mps 632 mmHg 50%
    17:00 +10°C° 0 mm 1 mps 631 mmHg 62%
    18:00 +7°C° 0 mm 1 mps 630 mmHg 74%
    19:00 +5°C° 0 mm 1 mps 629 mmHg 85%
    20:00 +5°C° 0 mm 1 mps 630 mmHg 84%
    21:00 +5°C° 0 mm 1 mps 630 mmHg 82%
    22:00 +5°C° 0 mm 1 mps 630 mmHg 80%
    23:00 +4°C° 0 mm 2 mps 630 mmHg 80%

    21 September, Saturday

    Time Temperature Precipitation Wind Pressure Humidity
    00:00 +4°C° 0 mm 2 mps 630 mmHg 80%
    01:00 +4°C° 0 mm 2 mps 630 mmHg 79%
    02:00 +3°C° 0 mm 2 mps 629 mmHg 79%
    03:00 +3°C° 0 mm 2 mps 629 mmHg 79%
    04:00 +3°C° 0 mm 2 mps 629 mmHg 78%
    05:00 +4°C° 0 mm 2 mps 629 mmHg 77%
    06:00 +6°C° 0 mm 1 mps 629 mmHg 75%
    07:00 +6°C° 0 mm 1 mps 629 mmHg 73%
    08:00 +10°C° 0 mm 1 mps 630 mmHg 65%
    09:00 +13°C° 0 mm 1 mps 631 mmHg 56%
    10:00 +15°C° 0 mm 0 mps 633 mmHg 48%
    11:00 +18°C° 0 mm 1 mps 633 mmHg 46%
    12:00 +19°C° 0 mm 1 mps 633 mmHg 43%
    13:00 +20°C° 0 mm 1 mps 633 mmHg 41%
    14:00 +20°C° 0 mm 1 mps 632 mmHg 45%
    15:00 +19°C° 0 mm 1 mps 632 mmHg 50%
    16:00 +18°C° 0 mm 1 mps 631 mmHg 55%
    17:00 +15°C° 0 mm 1 mps 630 mmHg 64%
    18:00 +12°C° 0 mm 2 mps 629 mmHg 74%
    19:00 +8°C° 0 mm 2 mps 628 mmHg 84%
    20:00 +8°C° 0 mm 2 mps 628 mmHg 84%
    21:00 +7°C° 0 mm 2 mps 628 mmHg 85%
    22:00 +7°C° 0 mm 3 mps 628 mmHg 85%
    23:00 +6°C° 0 mm 2 mps 628 mmHg 85%

    22 September, Sunday

    Time Temperature Precipitation Wind Pressure Humidity
    00:00 +6°C° 0 mm 2 mps 627 mmHg 85%
    01:00 +6°C° 0 mm 2 mps 627 mmHg 84%
    02:00 +6°C° 0 mm 2 mps 627 mmHg 84%
    03:00 +6°C° 0 mm 2 mps 627 mmHg 83%
    04:00 +6°C° 0 mm 2 mps 626 mmHg 83%
    05:00 +6°C° 0 mm 2 mps 626 mmHg 81%
    06:00 +7°C° 0 mm 2 mps 627 mmHg 80%
    07:00 +7°C° 0 mm 2 mps 627 mmHg 78%
    08:00 +11°C° 0 mm 1 mps 628 mmHg 70%
    09:00 +14°C° 0 mm 1 mps 629 mmHg 62%
    10:00 +15°C° 0 mm 0 mps 630 mmHg 54%
    11:00 +16°C° 0 mm 0 mps 630 mmHg 52%
    12:00 +19°C° 0 mm 1 mps 629 mmHg 50%
    13:00 +20°C° 0 mm 1 mps 629 mmHg 49%
    14:00 +19°C° 0 mm 1 mps 629 mmHg 54%
    15:00 +18°C° 0 mm 1 mps 628 mmHg 59%
    16:00 +18°C° 0 mm 1 mps 628 mmHg 65%
    17:00 +15°C° 0.1 mm 1 mps 627 mmHg 73%
    18:00 +13°C° 0.1 mm 1 mps 627 mmHg 82%
    19:00 +11°C° 0.1 mm 1 mps 626 mmHg 90%
    20:00 +10°C° 0 mm 1 mps 626 mmHg 90%
    21:00 +10°C° 0 mm 1 mps 626 mmHg 90%
    22:00 +9°C° 0 mm 2 mps 626 mmHg 90%
    23:00 +8°C° 0 mm 2 mps 626 mmHg 90%

    23 September, Monday

    Time Temperature Precipitation Wind Pressure Humidity
    00:00 +8°C° 0 mm 2 mps 625 mmHg 91%
    01:00 +8°C° 0 mm 2 mps 625 mmHg 91%
    02:00 +9°C° 0 mm 1 mps 625 mmHg 90%
    03:00 +9°C° 0 mm 1 mps 625 mmHg 89%
    04:00 +9°C° 0 mm 1 mps 625 mmHg 88%
    05:00 +9°C° 1.8 mm 1 mps 625 mmHg 92%
    06:00 +9°C° 1.8 mm 1 mps 625 mmHg 95%
    07:00 +9°C° 1.8 mm 1 mps 626 mmHg 98%
    08:00 +9°C° 1.5 mm 1 mps 626 mmHg 98%
    09:00 +9°C° 1.5 mm 1 mps 626 mmHg 98%
    10:00 +9°C° 1.5 mm 1 mps 626 mmHg 98%
    11:00 +8°C° 0.8 mm 1 mps 626 mmHg 98%
    12:00 +7°C° 0.8 mm 2 mps 626 mmHg 97%
    13:00 +7°C° 0.8 mm 2 mps 626 mmHg 97%
    14:00 +7°C° 0.9 mm 2 mps 626 mmHg 97%
    15:00 +7°C° 0.9 mm 1 mps 626 mmHg 96%
    16:00 +7°C° 0.9 mm 1 mps 626 mmHg 96%
    17:00 +7°C° 0.8 mm 1 mps 626 mmHg 96%
    18:00 +6°C° 0.8 mm 1 mps 626 mmHg 96%
    19:00 +6°C° 0.8 mm 1 mps 627 mmHg 97%
    20:00 +6°C° 0 mm 1 mps 627 mmHg 96%
    21:00 +5°C° 0 mm 1 mps 627 mmHg 95%
    22:00 +5°C° 0 mm 1 mps 627 mmHg 95%
    23:00 +5°C° 0.1 mm 1 mps 627 mmHg 95%
    Show more